TimeCDT,TemperatureF,Dew PointF,Humidity,Sea Level PressureIn,VisibilityMPH,Wind Direction,Wind SpeedMPH,Gust SpeedMPH,PrecipitationIn,Events,Conditions,WindDirDegrees,DateUTC
12:24 AM,53.6,46.4,77,30.12,10.0,SSE,12.7,-,N/A,,Scattered Clouds,150,2012-10-13 05:24:00
12:55 AM,54.0,46.9,77,30.12,10.0,SSE,9.2,-,N/A,,Clear,160,2012-10-13 05:55:00
1:55 AM,54.0,48.0,80,30.09,10.0,SSE,10.4,-,N/A,,Overcast,160,2012-10-13 06:55:00
2:55 AM,54.0,48.9,83,30.05,10.0,South,9.2,-,N/A,,Overcast,170,2012-10-13 07:55:00
3:34 AM,55.4,51.8,88,30.02,10.0,South,10.4,-,N/A,,Mostly Cloudy,180,2012-10-13 08:34:00
3:55 AM,55.0,51.1,86,30.02,10.0,South,10.4,-,N/A,,Overcast,170,2012-10-13 08:55:00
4:24 AM,55.4,51.8,88,30.04,10.0,SSW,9.2,-,N/A,,Overcast,200,2012-10-13 09:24:00
4:55 AM,55.0,53.1,93,30.01,7.0,South,17.3,-,0.01,Rain,Light Rain,170,2012-10-13 09:55:00
5:11 AM,55.4,53.6,94,30.01,4.0,South,17.3,27.6,0.01,Rain-Thunderstorm,Light Rain,190,2012-10-13 10:11:00
5:45 AM,55.4,55.4,100,29.98,2.0,South,26.5,36.8,N/A,Rain-Thunderstorm,Heavy Thunderstorms and Rain,190,2012-10-13 10:45:00
5:53 AM,55.4,55.4,100,29.98,1.5,South,24.2,36.8,0.22,Rain-Thunderstorm,Heavy Thunderstorms and Rain,180,2012-10-13 10:53:00
5:55 AM,55.9,55.0,97,30.00,1.5,South,20.7,29.9,0.25,Rain-Thunderstorm,Heavy Thunderstorms and Rain,190,2012-10-13 10:55:00
5:59 AM,55.4,55.4,100,30.00,2.0,South,16.1,29.9,0.02,Rain-Thunderstorm,Thunderstorms and Rain,190,2012-10-13 10:59:00
6:11 AM,57.2,55.4,94,30.00,1.0,SSW,13.8,29.9,0.23,Rain-Thunderstorm,Heavy Thunderstorms and Rain,210,2012-10-13 11:11:00
6:37 AM,55.4,55.4,100,29.99,3.0,South,15.0,-,0.63,Rain-Thunderstorm,Light Thunderstorms and Rain,170,2012-10-13 11:37:00
6:55 AM,57.9,57.0,97,29.99,7.0,South,15.0,21.9,0.66,Thunderstorm,Overcast,180,2012-10-13 11:55:00
6:59 AM,60.8,57.2,88,29.99,8.0,South,12.7,21.9,N/A,,Overcast,190,2012-10-13 11:59:00
7:55 AM,57.0,57.0,100,29.98,4.0,South,11.5,-,0.06,,Overcast,170,2012-10-13 12:55:00
8:02 AM,57.2,55.4,94,29.97,2.5,South,10.4,-,0.00,Rain,Light Rain,170,2012-10-13 13:02:00
8:23 AM,57.2,57.2,100,29.98,1.8,South,8.1,-,0.00,,Overcast,180,2012-10-13 13:23:00
8:55 AM,59.0,57.9,96,29.99,2.0,South,10.4,-,0.00,,Overcast,190,2012-10-13 13:55:00
9:33 AM,60.8,59.0,94,29.97,3.0,South,11.5,-,N/A,,Overcast,190,2012-10-13 14:33:00
9:55 AM,60.1,59.0,96,29.99,3.0,SSW,10.4,-,N/A,,Overcast,210,2012-10-13 14:55:00
10:55 AM,61.0,60.1,97,29.97,3.0,South,10.4,17.3,N/A,,Overcast,190,2012-10-13 15:55:00
11:55 AM,63.0,61.0,93,29.95,4.0,SSW,11.5,-,N/A,,Overcast,200,2012-10-13 16:55:00
12:20 PM,62.6,62.6,100,29.93,4.0,SSW,12.7,18.4,0.01,Rain,Light Rain,200,2012-10-13 17:20:00
12:46 PM,64.4,62.6,94,29.92,4.0,South,11.5,-,N/A,Rain,Light Rain,190,2012-10-13 17:46:00
12:55 PM,64.0,62.1,93,29.91,4.0,South,10.4,-,0.01,Rain,Light Rain,190,2012-10-13 17:55:00
1:27 PM,64.4,62.6,94,29.84,3.0,SSE,9.2,-,0.02,Rain,Light Rain,160,2012-10-13 18:27:00
1:41 PM,66.2,64.4,94,29.85,4.0,South,11.5,19.6,0.02,Rain,Light Rain,190,2012-10-13 18:41:00
1:55 PM,66.9,64.0,90,29.85,5.0,South,12.7,19.6,0.02,,Overcast,190,2012-10-13 18:55:00
2:46 PM,69.8,64.4,83,29.83,7.0,SSW,20.7,27.6,N/A,,Overcast,210,2012-10-13 19:46:00
2:55 PM,69.1,64.0,84,29.83,7.0,SSW,19.6,31.1,N/A,,Overcast,210,2012-10-13 19:55:00
3:55 PM,68.0,63.0,84,29.79,8.0,SSW,15.0,26.5,N/A,,Mostly Cloudy,200,2012-10-13 20:55:00
4:12 PM,66.2,62.6,88,29.80,7.0,SSW,13.8,21.9,N/A,,Scattered Clouds,200,2012-10-13 21:12:00
4:55 PM,66.9,63.0,87,29.78,9.0,South,11.5,24.2,N/A,,Scattered Clouds,190,2012-10-13 21:55:00
5:21 PM,66.2,62.6,88,29.77,8.0,SSW,11.5,23.0,0.01,Rain,Light Rain,210,2012-10-13 22:21:00
5:55 PM,64.9,64.0,97,29.81,5.0,SSW,15.0,23.0,0.05,Rain,Light Rain,210,2012-10-13 22:55:00
6:23 PM,66.2,64.4,94,29.81,3.0,SSW,16.1,26.5,0.10,Rain,Rain,200,2012-10-13 23:23:00
6:55 PM,64.9,64.0,97,29.81,5.0,South,16.1,23.0,0.16,Rain,Light Rain,190,2012-10-13 23:55:00
7:22 PM,64.4,64.4,100,29.81,3.0,South,13.8,23.0,0.08,Rain,Rain,180,2012-10-14 00:22:00
7:53 PM,64.4,64.4,100,29.80,1.8,SSE,15.0,-,0.24,Rain,Rain,160,2012-10-14 00:53:00
7:55 PM,64.9,64.0,97,29.80,1.8,SSE,11.5,21.9,0.25,Rain,Rain,150,2012-10-14 00:55:00
7:57 PM,64.4,64.4,100,29.80,2.0,SSE,12.7,21.9,N/A,Rain,Heavy Rain,150,2012-10-14 00:57:00
8:05 PM,64.4,64.4,100,29.80,1.2,SE,16.1,-,0.14,Rain,Heavy Rain,140,2012-10-14 01:05:00
8:12 PM,64.4,64.4,100,29.80,1.0,SE,9.2,-,0.34,Rain,Heavy Rain,140,2012-10-14 01:12:00
8:18 PM,64.4,64.4,100,29.81,2.0,SE,11.5,-,N/A,Rain,Heavy Rain,140,2012-10-14 01:18:00
8:29 PM,64.4,64.4,100,29.80,4.0,SE,10.4,-,0.44,Rain,Light Rain,130,2012-10-14 01:29:00
8:55 PM,64.4,64.4,100,29.78,7.0,ESE,9.2,-,N/A,Rain,Light Rain,110,2012-10-14 01:55:00
9:32 PM,64.4,64.4,100,29.76,8.0,SE,13.8,-,0.00,,Overcast,130,2012-10-14 02:32:00
9:55 PM,64.9,64.0,97,29.77,7.0,SE,13.8,-,0.00,,Overcast,140,2012-10-14 02:55:00
10:14 PM,64.4,64.4,100,29.76,4.0,SE,13.8,-,0.02,Rain,Light Rain,140,2012-10-14 03:14:00
10:55 PM,64.9,64.0,97,29.73,5.0,South,13.8,-,0.07,Rain,Light Rain,170,2012-10-14 03:55:00
11:03 PM,64.4,64.4,100,29.73,6.0,South,12.7,-,0.01,Rain,Light Rain,180,2012-10-14 04:03:00
11:27 PM,64.4,62.6,94,29.71,7.0,South,18.4,26.5,0.04,Rain,Light Rain,180,2012-10-14 04:27:00
11:35 PM,64.4,62.6,94,29.71,9.0,South,18.4,26.5,0.05,Rain,Light Rain,180,2012-10-14 04:35:00
11:55 PM,64.0,63.0,96,29.71,5.0,South,16.1,23.0,0.09,Rain,Rain,190,2012-10-14 04:55:00